This is the latest recevied weather packets stored in our database for station/object DL0BB-10. If no packets are shown the sender has not sent any weather packets the latest 10 day(s).
| Time | Temp. | Humidity | Pressure | Rain* | Wind** | Luminosity | Snow |
|---|---|---|---|---|---|---|---|
| 1787705970 | 24.44° C | 38% | 1016.2 hPa | - | - | - | - |
| 1787705070 | 25° C | 36% | 1016.3 hPa | - | - | - | - |
| 1787704170 | 23.89° C | 38% | 1016.4 hPa | - | - | - | - |
| 1787703270 | 23.89° C | 38% | 1016.3 hPa | - | - | - | - |
| 1787702370 | 24.44° C | 37% | 1016.3 hPa | - | - | - | - |
| 1787701470 | 25° C | 36% | 1016.4 hPa | - | - | - | - |
| 1787700570 | 23.89° C | 38% | 1016.3 hPa | - | - | - | - |
| 1787699670 | 24.44° C | 38% | 1016.3 hPa | - | - | - | - |
| 1787698769 | 24.44° C | 37% | 1016.2 hPa | - | - | - | - |
| 1787697869 | 25° C | 36% | 1016.2 hPa | - | - | - | - |
| 1787696969 | 23.89° C | 38% | 1016.2 hPa | - | - | - | - |
| 1787696069 | 24.44° C | 38% | 1016.2 hPa | - | - | - | - |
| 1787695168 | 25° C | 37% | 1016.2 hPa | - | - | - | - |
| 1787693367 | 24.44° C | 38% | 1016.1 hPa | - | - | - | - |
| 1787692466 | 24.44° C | 38% | 1016 hPa | - | - | - | - |
| 1787691566 | 25° C | 37% | 1016 hPa | - | - | - | - |
| 1787690671 | 25.56° C | 36% | 1015.9 hPa | - | - | - | - |
| 1787689771 | 24.44° C | 38% | 1015.8 hPa | - | - | - | - |
| 1787688871 | 24.44° C | 38% | 1016 hPa | - | - | - | - |
| 1787687971 | 25° C | 37% | 1015.8 hPa | - | - | - | - |
| 1787687071 | 25.56° C | 36% | 1016 hPa | - | - | - | - |
| 1787686170 | 24.44° C | 38% | 1015.9 hPa | - | - | - | - |
| 1787685270 | 25° C | 38% | 1015.9 hPa | - | - | - | - |
| 1787684370 | 25° C | 37% | 1015.5 hPa | - | - | - | - |
| 1787683470 | 25.56° C | 36% | 1015.3 hPa | - | - | - | - |
* Rain since midnight (hover to see other rain measurements)
** Current wind speed in m/s (hover to see current wind gust speed)